SCP
0 0 0 0 0 0 0 0 0 0 0 0 0 0 0 0 0 0 0 0 0 0
0 0 0 0 0 0 0 0 0 0 0 0 0 0 0 0 0 0 0 0 0 0
0 0 0 0 0 0 0 0 0 0 0 0 0 0 0 0 0 0 0 0 0 0
0 0 0 0 0 0 0 0 0 0 0 0 0 0 0 0 0 0 0 0 0 0
0 0 0 0 0 0 0 0 0 0 0 0 0 0 0 0 0 0 0 0 0 0
0 0 0 0 0 0 0 0 0 0 0 0 0 0 0 0 0 0 0 0 0 0
0 0 0 0 0 0 0 0 0 0 0 0 0 0 0 0 0 0 0 0 0 0
0 0 0 0 0 0 0 0 0 0 0 0 0 0 0 0 0 0 0 0 0 0
0 0 0 0 0 0 0 0 0 0 0 0 0 0 0 0 0 0 0 0 0 0
0 0 0 0 0 0 0 0 0 0 0 0 0 0 0 0 0 0 0 0 0 0
0 0 0 0 0 0 0 0 0 0 0 0 0 0 0 0 0 0 0 0 0 0
0 0 0 0 0 0 0 0 0 0 0 0 0 0 0 0 0 0 0 0 0 0
0 0 0 0 0 0 0 0 0 0 0 0 0 0 0 0 0 0 0 0 0 0
0 0 0 0 0 0 0 0 0 0 0 0 0 0 0 0 0 0 0 0 0 0
Wind_Speed_500mb
74 73 69 66 63 59 56 54 52 51 51 49 48 48 48 49 51 54 58 61 64 67
67 72 71 66 66 65 61 58 54 53 52 51 51 47 45 50 53 55 58 61 63 65
57 59 63 66 63 60 56 53 52 52 53 53 50 43 45 50 51 54 55 60 61 61
58 58 56 56 53 51 49 49 50 50 49 47 45 42 43 46 46 51 51 56 58 60
53 51 49 46 43 41 42 41 41 42 44 43 41 41 44 45 49 49 48 47 51 57
50 45 40 37 37 35 35 37 41 43 43 42 43 43 44 45 46 50 51 44 51 52
41 37 35 34 34 34 37 39 39 37 37 37 37 36 39 41 43 46 51 54 58 57
38 36 37 37 36 36 36 34 34 33 33 33 33 34 37 38 40 44 45 44 48 52
40 40 40 40 38 36 35 36 34 32 32 33 35 36 39 40 39 41 44 43 45 50
44 43 43 42 41 39 38 36 34 31 32 33 33 36 39 41 41 40 40 41 40 38
48 47 46 43 43 38 34 32 31 30 32 31 32 34 43 35 32 31 30 31 31 28
51 51 47 44 41 35 33 33 33 32 34 35 32 31 32 26 22 22 27 24 20 17
54 52 44 41 39 36 34 33 33 29 30 30 28 22 17 16 16 14 13 19 23 21
52 47 42 40 37 34 31 31 29 26 24 21 17 17 16 18 17 13 11 10 14 15
Wind_Direction_500mb
248 247 249 251 254 259 264 268 273 276 277 276 276 276 275 275 275 275 276 278 282 283
246 245 247 252 255 260 265 270 274 274 275 274 272 272 273 273 274 277 279 282 284 286
247 248 247 248 254 258 263 266 267 266 266 267 269 274 272 274 277 276 280 282 285 285
241 243 243 243 247 251 255 258 260 261 264 266 269 269 267 271 274 275 275 273 280 283
237 236 236 238 243 246 248 252 260 263 263 266 269 266 262 265 266 270 266 280 279 281
221 224 226 226 231 240 251 259 263 268 274 277 279 280 280 276 275 270 276 266 271 276
203 205 213 225 237 248 255 260 266 270 271 272 272 273 272 273 275 275 273 269 268 266
203 215 227 235 239 245 251 258 263 267 269 270 273 275 277 281 282 281 280 276 271 268
213 220 225 232 239 244 251 255 259 263 267 268 269 273 275 276 277 280 280 279 274 271
215 223 231 238 244 247 250 255 257 261 268 271 272 277 284 290 289 285 282 281 282 282
222 229 236 242 247 249 249 249 253 261 265 269 272 278 282 292 295 302 305 298 293 293
227 234 239 246 245 241 239 241 248 256 263 267 270 271 283 301 309 324 331 328 325 326
229 234 235 235 234 234 237 244 251 256 257 265 268 270 274 289 302 300 304 303 295 299
227 226 225 225 227 232 239 243 246 246 255 267 281 286 284 285 286 301 310 315 312 301
Wind_Speed_850mb
74 73 69 66 63 59 56 54 52 51 51 49 48 48 48 49 51 54 58 61 64 67
67 72 71 66 66 65 61 58 54 53 52 51 51 47 45 50 53 55 58 61 63 65
57 59 63 66 63 60 56 53 52 52 53 53 50 43 45 50 51 54 55 60 61 61
58 58 56 56 53 51 49 49 50 50 49 47 45 42 43 46 46 51 51 56 58 60
53 51 49 46 43 41 42 41 41 42 44 43 41 41 44 45 49 49 48 47 51 57
50 45 40 37 37 35 35 37 41 43 43 42 43 43 44 45 46 50 51 44 51 52
41 37 35 34 34 34 37 39 39 37 37 37 37 36 39 41 43 46 51 54 58 57
38 36 37 37 36 36 36 34 34 33 33 33 33 34 37 38 40 44 45 44 48 52
40 40 40 40 38 36 35 36 34 32 32 33 35 36 39 40 39 41 44 43 45 50
44 43 43 42 41 39 38 36 34 31 32 33 33 36 39 41 41 40 40 41 40 38
48 47 46 43 43 38 34 32 31 30 32 31 32 34 43 35 32 31 30 31 31 28
51 51 47 44 41 35 33 33 33 32 34 35 32 31 32 26 22 22 27 24 20 17
54 52 44 41 39 36 34 33 33 29 30 30 28 22 17 16 16 14 13 19 23 21
52 47 42 40 37 34 31 31 29 26 24 21 17 17 16 18 17 13 11 10 14 15
Wind_Direction_850mb
248 247 249 251 254 259 264 268 273 276 277 276 276 276 275 275 275 275 276 278 282 283
246 245 247 252 255 260 265 270 274 274 275 274 272 272 273 273 274 277 279 282 284 286
247 248 247 248 254 258 263 266 267 266 266 267 269 274 272 274 277 276 280 282 285 285
241 243 243 243 247 251 255 258 260 261 264 266 269 269 267 271 274 275 275 273 280 283
237 236 236 238 243 246 248 252 260 263 263 266 269 266 262 265 266 270 266 280 279 281
221 224 226 226 231 240 251 259 263 268 274 277 279 280 280 276 275 270 276 266 271 276
203 205 213 225 237 248 255 260 266 270 271 272 272 273 272 273 275 275 273 269 268 266
203 215 227 235 239 245 251 258 263 267 269 270 273 275 277 281 282 281 280 276 271 268
213 220 225 232 239 244 251 255 259 263 267 268 269 273 275 276 277 280 280 279 274 271
215 223 231 238 244 247 250 255 257 261 268 271 272 277 284 290 289 285 282 281 282 282
222 229 236 242 247 249 249 249 253 261 265 269 272 278 282 292 295 302 305 298 293 293
227 234 239 246 245 241 239 241 248 256 263 267 270 271 283 301 309 324 331 328 325 326
229 234 235 235 234 234 237 244 251 256 257 265 268 270 274 289 302 300 304 303 295 299
227 226 225 225 227 232 239 243 246 246 255 267 281 286 284 285 286 301 310 315 312 301